Location: *
(51.0333°S, 178.4667°E)
Time: 18:54:45
(UTC+00:00)

DNEPR-1 R/B - Pass Details

Date: 15 November 2019
Orbit: 556 x 1366 km, 64.6° (Epoch: 07 December)

Event Time Altitude Azimuth Distance (km) Brightness Sun altitude
Exits shadow 10:07:30 28° 351° (N) 1,126 4.4 -16.9°
Maximum altitude 10:09:28 53° 54° (NE) 723 3.5 -17.0°
Drops below altitude 10° 10:13:28 10° 131° (SE) 1,879 6.2 -17.3°
Sets 10:15:43 0° 135° (SE) 2,792 7.2 -17.4°
